KQA671 HKJK-FACT

Flight info

Callsign KQA671
Flight time 4h 54m
Altitude 34000
Route ATUDU1D LOSIN UP312 MB UR779 VLS DCT ERDAS ERDAS1A
Aircraft B738/M-SDE2E3FGHIRWXY/LB1

Departure

Time 2026-05-03 20:17
Airport Jomo Kenyatta International Airport (HKJK)

Arrival

Time 2026-05-04 01:12
Airport Cape Town International Airport (FACT)
Time Latitude Longitude Altitude Speed Heading
2026-05-03 20:17 -1.35441 37.11814 17988 ft 317 kts 214°
2026-05-03 20:17 -1.37297 37.10672 18434 ft 319 kts 214°
2026-05-03 20:18 -1.39193 37.09505 18886 ft 321 kts 214°
2026-05-03 20:18 -1.41101 37.08343 19336 ft 323 kts 214°
2026-05-03 20:18 -1.43037 37.07182 19789 ft 325 kts 213°
2026-05-03 20:18 -1.44990 37.06029 20241 ft 326 kts 213°
2026-05-03 20:19 -1.46954 37.04885 20691 ft 328 kts 213°
2026-05-03 20:19 -1.48940 37.03740 21142 ft 334 kts 213°
2026-05-03 20:19 -1.51021 37.02547 21605 ft 355 kts 212°
2026-05-03 20:19 -1.53195 37.01308 22063 ft 374 kts 212°
2026-05-03 20:20 -1.55451 37.00029 22514 ft 390 kts 212°
2026-05-03 20:20 -1.57901 36.98649 22983 ft 403 kts 212°
2026-05-03 20:20 -1.60382 36.97258 23441 ft 410 kts 212°
2026-05-03 20:20 -1.62887 36.95859 23895 ft 415 kts 212°
2026-05-03 20:21 -1.65415 36.94451 24346 ft 419 kts 211°
2026-05-03 20:21 -1.67973 36.93029 24798 ft 422 kts 211°
2026-05-03 20:21 -1.70546 36.91600 25250 ft 425 kts 211°
2026-05-03 20:21 -1.73109 36.90178 25696 ft 427 kts 211°
2026-05-03 20:22 -1.75716 36.88731 26147 ft 430 kts 211°
2026-05-03 20:22 -1.78339 36.87275 26598 ft 433 kts 211°
2026-05-03 20:22 -1.80983 36.85808 27050 ft 436 kts 211°
2026-05-03 20:22 -1.83641 36.84332 27500 ft 439 kts 211°
2026-05-03 20:23 -1.86320 36.82845 27952 ft 442 kts 211°
2026-05-03 20:23 -1.89022 36.81345 28404 ft 445 kts 211°
2026-05-03 20:23 -1.91727 36.79842 28854 ft 447 kts 211°
2026-05-03 20:23 -1.94454 36.78328 29305 ft 450 kts 211°
2026-05-03 20:24 -1.97209 36.76798 29758 ft 453 kts 211°
2026-05-03 20:24 -1.99970 36.75264 30209 ft 456 kts 211°
2026-05-03 20:24 -2.02702 36.73747 30652 ft 458 kts 211°
2026-05-03 20:24 -2.05503 36.72191 31105 ft 461 kts 211°
2026-05-03 20:25 -2.08312 36.70630 31556 ft 463 kts 212°
2026-05-03 20:25 -2.11117 36.69073 32004 ft 464 kts 212°
2026-05-03 20:25 -2.13957 36.67495 32457 ft 465 kts 212°
2026-05-03 20:25 -2.16763 36.65937 32903 ft 465 kts 212°
2026-05-03 20:26 -2.19618 36.64351 33357 ft 465 kts 212°
2026-05-03 20:26 -2.22448 36.62779 33785 ft 466 kts 212°
2026-05-03 20:26 -2.25262 36.61215 33925 ft 473 kts 212°
2026-05-03 20:27 -2.31097 36.57968 34003 ft 488 kts 211°
2026-05-03 20:27 -2.37103 36.54624 33998 ft 499 kts 211°
2026-05-03 20:28 -2.43198 36.51235 33996 ft 502 kts 211°
2026-05-03 20:28 -2.49264 36.47867 33995 ft 495 kts 211°
2026-05-03 20:29 -2.55214 36.44565 33995 ft 490 kts 211°
2026-05-03 20:29 -2.61167 36.41258 33995 ft 488 kts 211°
2026-05-03 20:30 -2.67093 36.37964 33996 ft 487 kts 211°
2026-05-03 20:30 -2.73007 36.34674 33996 ft 487 kts 211°
2026-05-03 20:31 -2.78921 36.31383 33996 ft 486 kts 211°
2026-05-03 20:31 -2.84798 36.28112 33996 ft 486 kts 211°
2026-05-03 20:32 -2.90705 36.24824 33996 ft 486 kts 211°
2026-05-03 20:32 -2.96608 36.21537 33996 ft 486 kts 211°
2026-05-03 20:33 -3.02521 36.18244 33996 ft 486 kts 211°
2026-05-03 20:33 -3.08391 36.14973 33996 ft 486 kts 212°
2026-05-03 20:34 -3.14349 36.11764 33996 ft 487 kts 210°
2026-05-03 20:34 -3.20437 36.08802 33996 ft 488 kts 207°
2026-05-03 20:35 -3.26620 36.05975 33996 ft 488 kts 207°
2026-05-03 20:35 -3.32811 36.03204 33996 ft 488 kts 206°
2026-05-03 20:36 -3.38974 36.00451 33996 ft 488 kts 207°
2026-05-03 20:36 -3.45167 35.97669 33996 ft 488 kts 207°
2026-05-03 20:37 -3.51351 35.94867 33996 ft 488 kts 207°
2026-05-03 20:37 -3.57518 35.92042 33996 ft 488 kts 207°
2026-05-03 20:38 -3.63678 35.89198 33996 ft 488 kts 207°
2026-05-03 20:38 -3.69790 35.86366 33996 ft 488 kts 207°
2026-05-03 20:39 -3.75943 35.83512 33996 ft 488 kts 207°
2026-05-03 20:39 -3.82107 35.80651 33996 ft 488 kts 207°
2026-05-03 20:40 -3.88260 35.77796 33996 ft 488 kts 207°
2026-05-03 20:40 -3.94364 35.74963 33996 ft 488 kts 207°
2026-05-03 20:41 -4.00547 35.72135 33996 ft 488 kts 207°
2026-05-03 20:41 -4.06736 35.69348 33996 ft 488 kts 207°
2026-05-03 20:42 -4.12937 35.66575 33996 ft 488 kts 206°
2026-05-03 20:42 -4.19141 35.63805 33996 ft 488 kts 206°
2026-05-03 20:43 -4.25294 35.61046 33996 ft 488 kts 207°
2026-05-03 20:43 -4.31478 35.58244 33996 ft 488 kts 207°
2026-05-03 20:44 -4.37648 35.55432 33996 ft 488 kts 207°
2026-05-03 20:44 -4.43820 35.52611 33996 ft 488 kts 207°
2026-05-03 20:45 -4.49955 35.49804 33996 ft 488 kts 207°
2026-05-03 20:45 -4.56133 35.46976 33996 ft 488 kts 207°
2026-05-03 20:46 -4.62305 35.44154 33996 ft 488 kts 207°
2026-05-03 20:46 -4.68485 35.41333 33996 ft 488 kts 207°
2026-05-03 20:47 -4.74615 35.38535 33996 ft 488 kts 207°
2026-05-03 20:47 -4.80789 35.35717 33996 ft 488 kts 207°
2026-05-03 20:48 -4.86966 35.32895 33996 ft 488 kts 207°
2026-05-03 20:48 -4.93098 35.30093 33996 ft 488 kts 207°
2026-05-03 20:49 -4.99275 35.27269 33996 ft 488 kts 207°
2026-05-03 20:49 -5.05442 35.24448 33996 ft 488 kts 207°
2026-05-03 20:50 -5.11623 35.21619 33996 ft 488 kts 207°
2026-05-03 20:50 -5.17798 35.18791 33996 ft 488 kts 207°
2026-05-03 20:51 -5.23964 35.15966 33996 ft 488 kts 207°
2026-05-03 20:51 -5.30093 35.13156 33996 ft 488 kts 207°
2026-05-03 20:52 -5.36267 35.10324 33996 ft 488 kts 207°
2026-05-03 20:52 -5.42443 35.07490 33996 ft 488 kts 207°
2026-05-03 20:53 -5.48611 35.04658 33996 ft 488 kts 207°
2026-05-03 20:53 -5.54741 35.01842 33996 ft 488 kts 207°
2026-05-03 20:54 -5.60908 34.99008 33996 ft 488 kts 207°
2026-05-03 20:54 -5.70164 34.94752 33996 ft 488 kts 207°
2026-05-03 20:55 -5.76337 34.91913 33996 ft 488 kts 207°
2026-05-03 20:55 -5.82462 34.89100 33996 ft 488 kts 207°
2026-05-03 20:56 -5.88639 34.86265 33996 ft 488 kts 207°
2026-05-03 20:56 -5.94812 34.83432 33996 ft 488 kts 207°
2026-05-03 20:57 -6.00975 34.80604 33996 ft 488 kts 207°
2026-05-03 20:57 -6.07147 34.77769 33996 ft 488 kts 207°
2026-05-03 20:58 -6.13282 34.74950 33996 ft 488 kts 207°
2026-05-03 20:58 -6.19453 34.72114 33996 ft 488 kts 207°
2026-05-03 20:59 -6.25620 34.69279 33996 ft 488 kts 207°
2026-05-03 20:59 -6.31796 34.66438 33996 ft 488 kts 207°
2026-05-03 21:00 -6.35873 34.64563 33996 ft 488 kts 207°
2026-05-03 21:00 -6.44092 34.60780 33996 ft 488 kts 207°
2026-05-03 21:01 -6.50252 34.57944 33996 ft 488 kts 207°
2026-05-03 21:01 -6.56388 34.55119 33996 ft 488 kts 207°
2026-05-03 21:02 -6.62560 34.52276 33996 ft 488 kts 207°
2026-05-03 21:02 -6.68728 34.49434 33996 ft 488 kts 207°
2026-05-03 21:03 -6.74894 34.46592 33996 ft 488 kts 207°
2026-05-03 21:03 -6.80026 34.44226 33996 ft 488 kts 207°
2026-05-03 21:04 -6.87187 34.40924 33996 ft 488 kts 207°
2026-05-03 21:04 -6.93357 34.38078 33996 ft 488 kts 207°
2026-05-03 21:05 -6.98482 34.35713 33996 ft 488 kts 207°
2026-05-03 21:05 -7.05654 34.32403 33996 ft 488 kts 207°
2026-05-03 21:06 -7.11824 34.29555 33996 ft 488 kts 207°
2026-05-03 21:06 -7.17987 34.26708 33996 ft 488 kts 207°
2026-05-03 21:07 -7.23117 34.24339 33996 ft 488 kts 207°
2026-05-03 21:07 -7.29281 34.21490 33996 ft 488 kts 207°
2026-05-03 21:08 -7.36452 34.18176 33996 ft 488 kts 207°
2026-05-03 21:08 -7.41615 34.15789 33996 ft 488 kts 207°
2026-05-03 21:09 -7.47740 34.12956 33996 ft 488 kts 207°
2026-05-03 21:09 -7.53906 34.10103 33996 ft 488 kts 207°
2026-05-03 21:10 -7.60060 34.07255 33996 ft 488 kts 207°
2026-05-03 21:10 -7.66201 34.04412 33996 ft 488 kts 207°
2026-05-03 21:11 -7.72367 34.01557 33996 ft 488 kts 207°
2026-05-03 21:11 -7.78530 33.98702 33996 ft 488 kts 207°
2026-05-03 21:12 -7.84681 33.95851 33996 ft 488 kts 207°
2026-05-03 21:12 -7.90820 33.93005 33996 ft 488 kts 207°
2026-05-03 21:13 -7.96981 33.90149 33996 ft 488 kts 207°
2026-05-03 21:13 -8.03143 33.87290 33996 ft 488 kts 207°
2026-05-03 21:14 -8.09310 33.84429 33996 ft 488 kts 207°
2026-05-03 21:14 -8.15473 33.81568 33996 ft 488 kts 207°
2026-05-03 21:15 -8.21639 33.78704 33996 ft 488 kts 207°
2026-05-03 21:15 -8.27759 33.75862 33996 ft 488 kts 207°
2026-05-03 21:16 -8.33919 33.72999 33996 ft 488 kts 207°
2026-05-03 21:16 -8.40088 33.70132 33996 ft 488 kts 207°
2026-05-03 21:17 -8.46246 33.67268 33996 ft 488 kts 207°
2026-05-03 21:17 -8.52368 33.64420 33996 ft 488 kts 207°
2026-05-03 21:18 -8.58529 33.61553 33996 ft 488 kts 207°
2026-05-03 21:18 -8.64699 33.58680 33996 ft 488 kts 207°
2026-05-03 21:19 -8.70861 33.55810 33996 ft 488 kts 207°
2026-05-03 21:19 -8.77017 33.52941 33996 ft 488 kts 207°
2026-05-03 21:20 -8.83141 33.50086 33996 ft 488 kts 207°
2026-05-03 21:20 -8.89293 33.47196 33996 ft 487 kts 209°
2026-05-03 21:21 -8.95113 33.43745 33997 ft 484 kts 216°
2026-05-03 21:21 -9.00623 33.39832 33996 ft 483 kts 219°
2026-05-03 21:22 -9.05954 33.35775 33996 ft 483 kts 219°
2026-05-03 21:22 -9.11280 33.31632 33996 ft 483 kts 220°
2026-05-03 21:23 -9.16601 33.27483 33996 ft 483 kts 220°
2026-05-03 21:23 -9.21934 33.23344 33996 ft 483 kts 219°
2026-05-03 21:24 -9.27273 33.19225 33996 ft 483 kts 219°
2026-05-03 21:24 -9.32600 33.15135 33996 ft 483 kts 219°
2026-05-03 21:25 -9.37964 33.11030 33996 ft 483 kts 219°
2026-05-03 21:25 -9.43318 33.06937 33996 ft 483 kts 219°
2026-05-03 21:26 -9.48653 33.02849 33996 ft 483 kts 219°
2026-05-03 21:26 -9.54009 32.98736 33996 ft 483 kts 219°
2026-05-03 21:27 -9.59359 32.94623 33996 ft 483 kts 219°
2026-05-03 21:27 -9.64714 32.90503 33996 ft 483 kts 219°
2026-05-03 21:28 -9.70061 32.86387 33996 ft 483 kts 219°
2026-05-03 21:28 -9.75380 32.82289 33996 ft 483 kts 219°
2026-05-03 21:29 -9.80726 32.78169 33996 ft 483 kts 219°
2026-05-03 21:29 -9.86082 32.74039 33996 ft 483 kts 219°
2026-05-03 21:30 -9.91394 32.69941 33996 ft 483 kts 219°
2026-05-03 21:30 -9.96739 32.65815 33996 ft 483 kts 219°
2026-05-03 21:31 -10.02089 32.61684 33996 ft 483 kts 219°
2026-05-03 21:31 -10.07431 32.57557 33996 ft 483 kts 219°
2026-05-03 21:32 -10.12775 32.53428 33996 ft 483 kts 219°
2026-05-03 21:32 -10.18120 32.49294 33996 ft 483 kts 219°
2026-05-03 21:33 -10.23436 32.45183 33996 ft 483 kts 219°
2026-05-03 21:33 -10.28774 32.41052 33996 ft 483 kts 219°
2026-05-03 21:34 -10.34121 32.36912 33996 ft 483 kts 219°
2026-05-03 21:34 -10.39467 32.32771 33996 ft 483 kts 219°
2026-05-03 21:35 -10.44774 32.28658 33996 ft 483 kts 219°
2026-05-03 21:35 -10.50118 32.24515 33996 ft 483 kts 219°
2026-05-03 21:36 -10.55456 32.20375 33996 ft 483 kts 219°
2026-05-03 21:36 -10.60800 32.16227 33996 ft 483 kts 219°
2026-05-03 21:37 -10.66100 32.12112 33996 ft 483 kts 219°
2026-05-03 21:37 -10.71435 32.07967 33996 ft 483 kts 219°
2026-05-03 21:38 -10.76774 32.03816 33996 ft 483 kts 219°
2026-05-03 21:38 -10.82114 31.99662 33996 ft 483 kts 219°
2026-05-03 21:39 -10.87454 31.95508 33996 ft 483 kts 219°
2026-05-03 21:39 -10.92758 31.91384 33996 ft 483 kts 219°
2026-05-03 21:40 -10.98089 31.87235 33996 ft 483 kts 219°
2026-05-03 21:40 -11.03430 31.83075 33996 ft 483 kts 220°
2026-05-03 21:41 -11.08759 31.78922 33996 ft 483 kts 219°
2026-05-03 21:41 -11.14064 31.74792 33996 ft 483 kts 219°
2026-05-03 21:42 -11.19398 31.70641 33996 ft 483 kts 219°
2026-05-03 21:42 -11.24739 31.66483 33996 ft 483 kts 219°
2026-05-03 21:43 -11.30075 31.62326 33996 ft 483 kts 219°
2026-05-03 21:43 -11.35415 31.58162 33996 ft 483 kts 219°
2026-05-03 21:44 -11.40715 31.54027 33996 ft 483 kts 220°
2026-05-03 21:44 -11.46052 31.49862 33996 ft 483 kts 220°
2026-05-03 21:45 -11.51379 31.45701 33996 ft 483 kts 220°
2026-05-03 21:45 -11.56724 31.41524 33996 ft 483 kts 220°
2026-05-03 21:46 -11.62016 31.37386 33996 ft 483 kts 220°
2026-05-03 21:46 -11.67348 31.33215 33996 ft 483 kts 220°
2026-05-03 21:47 -11.72678 31.29043 33996 ft 483 kts 220°
2026-05-03 21:47 -11.78006 31.24870 33996 ft 483 kts 220°
2026-05-03 21:48 -11.83306 31.20717 33996 ft 483 kts 220°
2026-05-03 21:48 -11.88635 31.16541 33996 ft 483 kts 220°
2026-05-03 21:49 -11.93956 31.12367 33996 ft 483 kts 220°
2026-05-03 21:49 -11.99288 31.08182 33996 ft 483 kts 220°
2026-05-03 21:50 -12.04581 31.04027 33996 ft 483 kts 220°
2026-05-03 21:50 -12.09906 30.99844 33996 ft 483 kts 220°
2026-05-03 21:51 -12.15231 30.95658 33996 ft 483 kts 220°
2026-05-03 21:51 -12.20553 30.91473 33996 ft 483 kts 220°
2026-05-03 21:52 -12.25876 30.87285 33996 ft 483 kts 220°
2026-05-03 21:52 -12.31202 30.83093 33996 ft 483 kts 220°
2026-05-03 21:53 -12.36484 30.78933 33996 ft 483 kts 220°
2026-05-03 21:53 -12.41814 30.74732 33996 ft 483 kts 220°
2026-05-03 21:54 -12.47131 30.70540 33996 ft 483 kts 220°
2026-05-03 21:54 -12.52451 30.66343 33996 ft 483 kts 220°
2026-05-03 21:55 -12.57740 30.62168 33996 ft 483 kts 220°
2026-05-03 21:55 -12.63055 30.57970 33996 ft 483 kts 220°
2026-05-03 21:56 -12.68380 30.53762 33996 ft 483 kts 220°
2026-05-03 21:56 -12.73687 30.49565 33996 ft 483 kts 220°
2026-05-03 21:57 -12.79006 30.45356 33996 ft 483 kts 220°
2026-05-03 21:57 -12.84288 30.41173 33996 ft 483 kts 220°
2026-05-03 21:58 -12.89598 30.36965 33996 ft 483 kts 220°
2026-05-03 21:58 -12.94923 30.32745 33996 ft 483 kts 220°
2026-05-03 21:59 -13.00202 30.28567 33996 ft 483 kts 220°
2026-05-03 21:59 -13.05554 30.24331 33996 ft 483 kts 220°
2026-05-03 22:00 -13.10838 30.20147 33996 ft 483 kts 220°
2026-05-03 22:00 -13.16151 30.15936 33996 ft 483 kts 220°
2026-05-03 22:01 -13.21468 30.11717 33996 ft 483 kts 220°
2026-05-03 22:01 -13.26750 30.07524 33996 ft 483 kts 220°
2026-05-03 22:02 -13.32060 30.03302 33996 ft 483 kts 220°
2026-05-03 22:02 -13.37371 29.99079 33996 ft 483 kts 220°
2026-05-03 22:03 -13.42685 29.94858 33996 ft 483 kts 220°
2026-05-03 22:03 -13.47998 29.90638 33996 ft 483 kts 220°
2026-05-03 22:04 -13.53279 29.86441 33996 ft 483 kts 220°
2026-05-03 22:04 -13.58586 29.82221 33996 ft 483 kts 220°
2026-05-03 22:05 -13.63901 29.77990 33996 ft 483 kts 220°
2026-05-03 22:05 -13.69211 29.73760 33996 ft 483 kts 220°
2026-05-03 22:06 -13.74485 29.69556 33996 ft 483 kts 220°
2026-05-03 22:06 -13.79791 29.65324 33996 ft 483 kts 220°
2026-05-03 22:07 -13.85099 29.61087 33996 ft 483 kts 220°
2026-05-03 22:07 -13.90407 29.56848 33996 ft 483 kts 220°
2026-05-03 22:08 -13.95674 29.52638 33996 ft 483 kts 220°
2026-05-03 22:08 -14.00987 29.48390 33996 ft 483 kts 220°
2026-05-03 22:09 -14.06289 29.44146 33996 ft 483 kts 220°
2026-05-03 22:10 -14.14240 29.37780 33996 ft 483 kts 220°
2026-05-03 22:10 -14.19501 29.33563 33996 ft 483 kts 220°
2026-05-03 22:11 -14.24810 29.29306 33996 ft 483 kts 220°
2026-05-03 22:11 -14.30108 29.25055 33996 ft 483 kts 220°
2026-05-03 22:12 -14.35408 29.20799 33996 ft 483 kts 220°
2026-05-03 22:12 -14.40675 29.16567 33996 ft 483 kts 220°
2026-05-03 22:13 -14.45974 29.12308 33996 ft 483 kts 220°
2026-05-03 22:13 -14.51263 29.08053 33996 ft 483 kts 220°
2026-05-03 22:14 -14.56570 29.03781 33996 ft 483 kts 220°
2026-05-03 22:14 -14.61826 28.99548 33996 ft 483 kts 220°
2026-05-03 22:15 -14.67117 28.95284 33996 ft 483 kts 220°
2026-05-03 22:15 -14.72410 28.91015 33996 ft 483 kts 220°
2026-05-03 22:16 -14.77712 28.86737 33996 ft 483 kts 220°
2026-05-03 22:16 -14.83003 28.82464 33996 ft 483 kts 220°
2026-05-03 22:17 -14.88257 28.78219 33996 ft 483 kts 220°
2026-05-03 22:17 -14.93548 28.73940 33996 ft 483 kts 220°
2026-05-03 22:18 -14.98836 28.69662 33996 ft 483 kts 220°
2026-05-03 22:18 -15.04092 28.65406 33996 ft 483 kts 220°
2026-05-03 22:19 -15.09379 28.61123 33996 ft 483 kts 220°
2026-05-03 22:19 -15.14660 28.56840 33996 ft 483 kts 220°
2026-05-03 22:20 -15.19950 28.52547 33996 ft 483 kts 220°
2026-05-03 22:20 -15.25220 28.48267 33996 ft 483 kts 220°
2026-05-03 22:21 -15.30499 28.44009 33996 ft 483 kts 218°
2026-05-03 22:21 -15.36286 28.40439 33997 ft 487 kts 210°
2026-05-03 22:22 -15.42423 28.37434 33996 ft 488 kts 206°
2026-05-03 22:22 -15.48657 28.34649 33996 ft 488 kts 205°
2026-05-03 22:23 -15.54931 28.31929 33996 ft 488 kts 205°
2026-05-03 22:23 -15.61163 28.29239 33996 ft 488 kts 205°
2026-05-03 22:24 -15.67432 28.26523 33996 ft 488 kts 205°
2026-05-03 22:24 -15.73680 28.23799 33996 ft 488 kts 205°
2026-05-03 22:25 -15.79952 28.21049 33996 ft 488 kts 205°
2026-05-03 22:25 -15.86189 28.18302 33996 ft 488 kts 206°
2026-05-03 22:26 -15.92419 28.15547 33996 ft 488 kts 206°
2026-05-03 22:26 -15.98661 28.12778 33996 ft 488 kts 206°
2026-05-03 22:27 -16.04912 28.09999 33996 ft 488 kts 206°
2026-05-03 22:27 -16.11150 28.07220 33996 ft 488 kts 206°
2026-05-03 22:28 -16.17348 28.04454 33996 ft 488 kts 206°
2026-05-03 22:28 -16.23583 28.01669 33996 ft 488 kts 206°
2026-05-03 22:29 -16.29833 27.98873 33996 ft 488 kts 206°
2026-05-03 22:29 -16.36025 27.96100 33996 ft 488 kts 206°
2026-05-03 22:30 -16.42313 27.93282 33996 ft 488 kts 206°
2026-05-03 22:30 -16.48501 27.90507 33996 ft 488 kts 206°
2026-05-03 22:31 -16.54741 27.87706 33996 ft 488 kts 206°
2026-05-03 22:31 -16.60980 27.84903 33996 ft 488 kts 206°
2026-05-03 22:32 -16.67222 27.82096 33996 ft 488 kts 206°
2026-05-03 22:32 -16.73456 27.79291 33996 ft 488 kts 206°
2026-05-03 22:33 -16.79656 27.76499 33996 ft 488 kts 206°
2026-05-03 22:33 -16.85885 27.73692 33996 ft 488 kts 206°
2026-05-03 22:34 -16.92114 27.70883 33996 ft 488 kts 206°
2026-05-03 22:34 -16.98355 27.68067 33996 ft 488 kts 206°
2026-05-03 22:35 -17.04543 27.65272 33996 ft 488 kts 206°
2026-05-03 22:35 -17.10771 27.62457 33996 ft 488 kts 206°
2026-05-03 22:36 -17.17013 27.59634 33996 ft 488 kts 206°
2026-05-03 22:36 -17.23238 27.56816 33996 ft 488 kts 206°
2026-05-03 22:37 -17.29472 27.53993 33996 ft 488 kts 206°
2026-05-03 22:37 -17.35665 27.51185 33996 ft 488 kts 206°
2026-05-03 22:38 -17.41904 27.48355 33996 ft 488 kts 206°
2026-05-03 22:38 -17.48125 27.45531 33996 ft 488 kts 206°
2026-05-03 22:39 -17.54357 27.42700 33996 ft 488 kts 206°
2026-05-03 22:39 -17.60553 27.39883 33996 ft 488 kts 206°
2026-05-03 22:40 -17.66769 27.37055 33996 ft 488 kts 206°
2026-05-03 22:40 -17.73001 27.34217 33996 ft 488 kts 206°
2026-05-03 22:41 -17.79237 27.31375 33996 ft 488 kts 206°
2026-05-03 22:41 -17.85418 27.28556 33996 ft 488 kts 206°
2026-05-03 22:42 -17.91649 27.25713 33996 ft 488 kts 206°
2026-05-03 22:42 -17.97873 27.22870 33996 ft 488 kts 206°
2026-05-03 22:43 -18.04105 27.20022 33996 ft 488 kts 206°
2026-05-03 22:43 -18.10283 27.17196 33996 ft 488 kts 206°
2026-05-03 22:44 -18.16509 27.14345 33996 ft 488 kts 206°
2026-05-03 22:44 -18.22738 27.11491 33996 ft 488 kts 206°
2026-05-03 22:45 -18.28925 27.08654 33996 ft 488 kts 206°
2026-05-03 22:45 -18.35146 27.05800 33996 ft 488 kts 206°
2026-05-03 22:46 -18.41362 27.02945 33996 ft 488 kts 206°
2026-05-03 22:46 -18.47574 27.00091 33996 ft 488 kts 206°
2026-05-03 22:47 -18.53814 26.97220 33996 ft 488 kts 206°
2026-05-03 22:47 -18.60003 26.94371 33996 ft 488 kts 206°
2026-05-03 22:48 -18.66218 26.91508 33996 ft 488 kts 206°
2026-05-03 22:48 -18.72437 26.88641 33996 ft 488 kts 206°
2026-05-03 22:49 -18.78661 26.85769 33996 ft 488 kts 206°
2026-05-03 22:49 -18.84846 26.82913 33996 ft 488 kts 206°
2026-05-03 22:50 -18.91064 26.80039 33996 ft 488 kts 206°
2026-05-03 22:50 -18.97285 26.77161 33996 ft 488 kts 206°
2026-05-03 22:51 -19.03502 26.74283 33996 ft 488 kts 206°
2026-05-03 22:51 -19.09676 26.71423 33996 ft 488 kts 206°
2026-05-03 22:52 -19.15895 26.68539 33996 ft 488 kts 206°
2026-05-03 22:52 -19.22115 26.65652 33996 ft 488 kts 206°
2026-05-03 22:53 -19.28332 26.62765 33996 ft 488 kts 206°
2026-05-03 22:53 -19.34498 26.59899 33996 ft 488 kts 206°
2026-05-03 22:54 -19.40761 26.56985 33996 ft 488 kts 206°
2026-05-03 22:54 -19.46938 26.54109 33996 ft 488 kts 206°
2026-05-03 22:55 -19.53152 26.51213 33996 ft 488 kts 206°
2026-05-03 22:55 -19.59363 26.48316 33996 ft 488 kts 206°
2026-05-03 22:56 -19.65585 26.45412 33996 ft 488 kts 206°
2026-05-03 22:56 -19.71801 26.42508 33996 ft 488 kts 206°
2026-05-03 22:57 -19.77971 26.39622 33996 ft 488 kts 206°
2026-05-03 22:57 -19.84169 26.36722 33996 ft 488 kts 206°
2026-05-03 22:58 -19.90392 26.33807 33996 ft 488 kts 206°
2026-05-03 22:58 -19.96604 26.30895 33996 ft 488 kts 206°
2026-05-03 22:59 -20.02771 26.28001 33996 ft 488 kts 206°
2026-05-03 22:59 -20.08981 26.25085 33996 ft 488 kts 206°
2026-05-03 23:00 -20.15190 26.22166 33996 ft 488 kts 206°
2026-05-03 23:00 -20.21402 26.19244 33996 ft 488 kts 206°
2026-05-03 23:01 -20.27561 26.16344 33996 ft 488 kts 206°
2026-05-03 23:01 -20.33778 26.13414 33996 ft 488 kts 206°
2026-05-03 23:02 -20.39981 26.10489 33996 ft 488 kts 206°
2026-05-03 23:02 -20.46188 26.07559 33996 ft 488 kts 206°
2026-05-03 23:03 -20.52360 26.04642 33996 ft 488 kts 206°
2026-05-03 23:03 -20.58550 26.01715 33996 ft 488 kts 206°
2026-05-03 23:04 -20.64765 25.98773 33996 ft 488 kts 206°
2026-05-03 23:04 -20.70967 25.95834 33996 ft 488 kts 206°
2026-05-03 23:05 -20.77175 25.92891 33996 ft 488 kts 206°
2026-05-03 23:05 -20.83375 25.89948 33996 ft 488 kts 206°
2026-05-03 23:06 -20.89542 25.87018 33996 ft 488 kts 206°
2026-05-03 23:06 -20.95746 25.84068 33996 ft 488 kts 206°
2026-05-03 23:07 -21.01948 25.81117 33996 ft 488 kts 206°
2026-05-03 23:07 -21.08147 25.78164 33996 ft 488 kts 206°
2026-05-03 23:08 -21.14306 25.75227 33996 ft 488 kts 206°
2026-05-03 23:08 -21.20508 25.72268 33996 ft 488 kts 206°
2026-05-03 23:09 -21.26709 25.69305 33996 ft 488 kts 206°
2026-05-03 23:09 -21.32864 25.66363 33996 ft 488 kts 206°
2026-05-03 23:10 -21.39059 25.63398 33996 ft 488 kts 206°
2026-05-03 23:10 -21.45260 25.60428 33996 ft 488 kts 206°
2026-05-03 23:11 -21.51463 25.57454 33996 ft 488 kts 206°
2026-05-03 23:11 -21.57650 25.54484 33996 ft 488 kts 206°
2026-05-03 23:12 -21.63811 25.51525 33996 ft 488 kts 207°
2026-05-03 23:12 -21.70002 25.48549 33996 ft 488 kts 207°
2026-05-03 23:13 -21.76201 25.45565 33996 ft 488 kts 207°
2026-05-03 23:13 -21.82404 25.42578 33996 ft 488 kts 207°
2026-05-03 23:14 -21.88553 25.39613 33996 ft 488 kts 207°
2026-05-03 23:14 -21.94743 25.36625 33996 ft 488 kts 207°
2026-05-03 23:15 -22.00932 25.33636 33996 ft 488 kts 207°
2026-05-03 23:15 -22.07122 25.30643 33996 ft 488 kts 207°
2026-05-03 23:16 -22.13318 25.27644 33996 ft 488 kts 207°
2026-05-03 23:16 -22.19470 25.24664 33996 ft 488 kts 207°
2026-05-03 23:17 -22.25657 25.21663 33996 ft 488 kts 207°
2026-05-03 23:17 -22.31845 25.18659 33996 ft 488 kts 207°
2026-05-03 23:18 -22.38042 25.15648 33996 ft 488 kts 207°
2026-05-03 23:18 -22.44190 25.12658 33996 ft 488 kts 207°
2026-05-03 23:19 -22.50367 25.09651 33996 ft 488 kts 207°
2026-05-03 23:19 -22.56567 25.06629 33996 ft 488 kts 207°
2026-05-03 23:20 -22.62747 25.03614 33996 ft 488 kts 207°
2026-05-03 23:20 -22.68928 25.00596 33996 ft 488 kts 207°
2026-05-03 23:21 -22.75073 24.97593 33996 ft 488 kts 207°
2026-05-03 23:21 -22.81262 24.94565 33996 ft 488 kts 207°
2026-05-03 23:22 -22.90502 24.90038 33996 ft 488 kts 207°
2026-05-03 23:22 -22.96725 24.86986 33996 ft 488 kts 207°
2026-05-03 23:23 -23.02868 24.83970 33996 ft 488 kts 207°
2026-05-03 23:23 -23.09042 24.80935 33996 ft 488 kts 207°
2026-05-03 23:24 -23.15232 24.77890 33996 ft 488 kts 207°
2026-05-03 23:24 -23.21370 24.74867 33996 ft 488 kts 207°
2026-05-03 23:25 -23.27546 24.71823 33996 ft 488 kts 207°
2026-05-03 23:25 -23.33725 24.68774 33996 ft 488 kts 207°
2026-05-03 23:26 -23.39908 24.65719 33996 ft 488 kts 207°
2026-05-03 23:26 -23.46078 24.62668 33996 ft 488 kts 207°
2026-05-03 23:27 -23.52261 24.59607 33996 ft 488 kts 207°
2026-05-03 23:27 -23.58390 24.56570 33996 ft 488 kts 207°
2026-05-03 23:28 -23.64572 24.53504 33996 ft 488 kts 207°
2026-05-03 23:28 -23.70743 24.50439 33996 ft 488 kts 207°
2026-05-03 23:29 -23.76925 24.47366 33996 ft 488 kts 207°
2026-05-03 23:29 -23.83089 24.44299 33996 ft 488 kts 207°
2026-05-03 23:30 -23.89232 24.41239 33996 ft 488 kts 207°
2026-05-03 23:30 -23.95396 24.38166 33996 ft 488 kts 207°
2026-05-03 23:31 -24.01566 24.35086 33996 ft 488 kts 207°
2026-05-03 23:31 -24.07702 24.32020 33996 ft 488 kts 207°
2026-05-03 23:32 -24.13873 24.28933 33996 ft 488 kts 207°
2026-05-03 23:32 -24.20040 24.25845 33996 ft 488 kts 207°
2026-05-03 23:33 -24.26171 24.22771 33996 ft 488 kts 207°
2026-05-03 23:33 -24.31342 24.20176 33996 ft 488 kts 207°
2026-05-03 23:34 -24.38512 24.16575 33996 ft 488 kts 207°
2026-05-03 23:34 -24.43637 24.13998 33996 ft 488 kts 207°
2026-05-03 23:35 -24.49793 24.10899 33996 ft 488 kts 207°
2026-05-03 23:35 -24.55958 24.07792 33996 ft 488 kts 207°
2026-05-03 23:36 -24.62135 24.04676 33996 ft 488 kts 207°
2026-05-03 23:36 -24.68299 24.01564 33996 ft 488 kts 207°
2026-05-03 23:37 -24.74417 23.98471 33996 ft 488 kts 207°
2026-05-03 23:37 -24.80580 23.95351 33996 ft 488 kts 207°
2026-05-03 23:38 -24.87745 23.91721 33996 ft 488 kts 207°
2026-05-03 23:38 -24.92910 23.89101 33996 ft 488 kts 207°
2026-05-03 23:39 -24.99063 23.85976 33996 ft 488 kts 207°
2026-05-03 23:39 -25.05183 23.82865 33996 ft 488 kts 207°
2026-05-03 23:40 -25.11345 23.79729 33996 ft 488 kts 207°
2026-05-03 23:40 -25.17496 23.76595 33996 ft 487 kts 207°
2026-05-03 23:41 -25.23661 23.73451 33996 ft 487 kts 207°
2026-05-03 23:41 -25.29780 23.70326 33996 ft 487 kts 207°
2026-05-03 23:42 -25.35928 23.67184 33996 ft 487 kts 207°
2026-05-03 23:42 -25.42085 23.64033 33996 ft 487 kts 207°
2026-05-03 23:43 -25.48226 23.60887 33996 ft 487 kts 207°
2026-05-03 23:43 -25.54359 23.57741 33996 ft 487 kts 207°
2026-05-03 23:44 -25.60506 23.54584 33996 ft 487 kts 207°
2026-05-03 23:44 -25.66650 23.51426 33996 ft 487 kts 207°
2026-05-03 23:45 -25.72809 23.48256 33996 ft 487 kts 207°
2026-05-03 23:45 -25.78926 23.45104 33996 ft 487 kts 207°
2026-05-03 23:46 -25.85069 23.41935 33996 ft 487 kts 207°
2026-05-03 23:46 -25.91223 23.38757 33996 ft 487 kts 207°
2026-05-03 23:47 -25.97372 23.35578 33996 ft 487 kts 207°
2026-05-03 23:47 -26.03482 23.32415 33996 ft 487 kts 207°
2026-05-03 23:48 -26.09627 23.29230 33996 ft 487 kts 207°
2026-05-03 23:48 -26.15782 23.26036 33996 ft 487 kts 207°
2026-05-03 23:49 -26.21924 23.22846 33996 ft 487 kts 207°
2026-05-03 23:49 -26.28068 23.19651 33996 ft 487 kts 207°
2026-05-03 23:50 -26.34170 23.16473 33996 ft 487 kts 207°
2026-05-03 23:50 -26.40313 23.13271 33996 ft 487 kts 207°
2026-05-03 23:51 -26.46454 23.10066 33996 ft 487 kts 207°
2026-05-03 23:51 -26.52601 23.06854 33996 ft 487 kts 207°
2026-05-03 23:52 -26.58701 23.03663 33996 ft 487 kts 207°
2026-05-03 23:52 -26.64832 23.00452 33996 ft 487 kts 207°
2026-05-03 23:53 -26.70977 22.97230 33996 ft 487 kts 207°
2026-05-03 23:53 -26.77120 22.94004 33996 ft 487 kts 207°
2026-05-03 23:54 -26.83251 22.90781 33996 ft 487 kts 208°
2026-05-03 23:54 -26.89393 22.87549 33996 ft 487 kts 208°
2026-05-03 23:55 -26.95483 22.84340 33996 ft 487 kts 208°
2026-05-03 23:55 -27.01626 22.81100 33996 ft 487 kts 208°
2026-05-03 23:56 -27.07762 22.77859 33996 ft 487 kts 208°
2026-05-03 23:56 -27.13886 22.74620 33996 ft 487 kts 208°
2026-05-03 23:57 -27.19983 22.71392 33996 ft 487 kts 208°
2026-05-03 23:57 -27.26111 22.68143 33996 ft 487 kts 208°
2026-05-03 23:58 -27.32242 22.64889 33996 ft 487 kts 208°
2026-05-03 23:58 -27.38340 22.61648 33996 ft 487 kts 208°
2026-05-03 23:59 -27.44464 22.58390 33996 ft 487 kts 208°
2026-05-03 23:59 -27.50593 22.55125 33996 ft 487 kts 208°
2026-05-04 00:00 -27.56713 22.51861 33996 ft 487 kts 208°
2026-05-04 00:00 -27.62855 22.48580 33996 ft 487 kts 208°
2026-05-04 00:01 -27.68971 22.45310 33996 ft 487 kts 208°
2026-05-04 00:01 -27.75066 22.42047 33996 ft 487 kts 208°
2026-05-04 00:02 -27.81191 22.38764 33996 ft 487 kts 208°
2026-05-04 00:02 -27.87313 22.35478 33996 ft 487 kts 208°
2026-05-04 00:03 -27.93433 22.32189 33996 ft 487 kts 208°
2026-05-04 00:03 -27.99512 22.28918 33996 ft 487 kts 208°
2026-05-04 00:04 -28.05631 22.25622 33996 ft 487 kts 208°
2026-05-04 00:04 -28.11751 22.22320 33996 ft 487 kts 208°
2026-05-04 00:05 -28.17836 22.19034 33996 ft 487 kts 208°
2026-05-04 00:05 -28.23954 22.15724 33996 ft 487 kts 208°
2026-05-04 00:06 -28.30068 22.12414 33996 ft 487 kts 208°
2026-05-04 00:06 -28.36190 22.09095 33996 ft 487 kts 208°
2026-05-04 00:07 -28.42309 22.05773 33996 ft 487 kts 208°
2026-05-04 00:07 -28.48372 22.02477 33996 ft 487 kts 208°
2026-05-04 00:08 -28.54495 21.99144 33996 ft 487 kts 208°
2026-05-04 00:08 -28.60600 21.95817 33996 ft 487 kts 208°
2026-05-04 00:09 -28.66725 21.92475 33996 ft 487 kts 208°
2026-05-04 00:09 -28.72824 21.89142 33996 ft 487 kts 208°
2026-05-04 00:10 -28.78900 21.85818 33996 ft 487 kts 208°
2026-05-04 00:10 -28.85008 21.82472 33996 ft 487 kts 208°
2026-05-04 00:11 -28.91115 21.79122 33996 ft 487 kts 208°
2026-05-04 00:11 -28.97225 21.75766 33996 ft 487 kts 208°
2026-05-04 00:12 -29.03291 21.72429 33996 ft 487 kts 208°
2026-05-04 00:12 -29.09398 21.69066 33996 ft 487 kts 208°
2026-05-04 00:13 -29.15493 21.65705 33996 ft 487 kts 208°
2026-05-04 00:13 -29.21571 21.62349 33996 ft 487 kts 208°
2026-05-04 00:14 -29.27666 21.58979 33996 ft 487 kts 208°
2026-05-04 00:14 -29.33774 21.55598 33996 ft 487 kts 208°
2026-05-04 00:15 -29.39874 21.52216 33996 ft 487 kts 208°
2026-05-04 00:15 -29.45974 21.48830 33996 ft 487 kts 208°
2026-05-04 00:16 -29.52039 21.45458 33996 ft 487 kts 208°
2026-05-04 00:16 -29.58130 21.42068 33996 ft 487 kts 208°
2026-05-04 00:17 -29.64234 21.38666 33996 ft 487 kts 208°
2026-05-04 00:17 -29.70291 21.35285 33996 ft 487 kts 208°
2026-05-04 00:18 -29.76383 21.31880 33996 ft 487 kts 208°
2026-05-04 00:18 -29.82477 21.28470 33996 ft 487 kts 208°
2026-05-04 00:19 -29.88560 21.25061 33996 ft 487 kts 208°
2026-05-04 00:19 -29.94667 21.21634 33996 ft 487 kts 208°
2026-05-04 00:20 -30.00710 21.18238 33996 ft 487 kts 208°
2026-05-04 00:20 -30.06809 21.14806 33996 ft 487 kts 208°
2026-05-04 00:21 -30.12894 21.11377 33996 ft 487 kts 208°
2026-05-04 00:21 -30.18989 21.07938 33996 ft 487 kts 208°
2026-05-04 00:22 -30.25077 21.04498 33996 ft 487 kts 208°
2026-05-04 00:22 -30.31122 21.01078 33996 ft 487 kts 208°
2026-05-04 00:23 -30.37195 20.97637 33996 ft 487 kts 208°
2026-05-04 00:23 -30.43284 20.94182 33996 ft 487 kts 208°
2026-05-04 00:24 -30.49377 20.90720 33996 ft 487 kts 208°
2026-05-04 00:24 -30.55421 20.87281 33996 ft 487 kts 208°
2026-05-04 00:25 -30.61504 20.83815 33996 ft 487 kts 208°
2026-05-04 00:25 -30.67581 20.80347 33996 ft 487 kts 208°
2026-05-04 00:26 -30.73654 20.76877 33996 ft 487 kts 208°
2026-05-04 00:26 -30.79699 20.73418 33996 ft 487 kts 208°
2026-05-04 00:27 -30.85780 20.69934 33996 ft 487 kts 208°
2026-05-04 00:27 -30.91857 20.66447 33996 ft 487 kts 209°
2026-05-04 00:28 -30.97922 20.62962 33996 ft 487 kts 209°
2026-05-04 00:28 -31.04002 20.59462 33996 ft 487 kts 209°
2026-05-04 00:29 -31.10031 20.55988 33996 ft 487 kts 209°
2026-05-04 00:29 -31.16102 20.52484 33996 ft 487 kts 209°
2026-05-04 00:30 -31.22175 20.48975 33996 ft 487 kts 209°
2026-05-04 00:30 -31.28243 20.45463 33996 ft 487 kts 209°
2026-05-04 00:31 -31.34284 20.41961 33996 ft 487 kts 209°
2026-05-04 00:31 -31.40351 20.38440 33996 ft 487 kts 209°
2026-05-04 00:32 -31.46412 20.34916 33996 ft 487 kts 209°
2026-05-04 00:32 -31.52440 20.31407 33996 ft 487 kts 209°
2026-05-04 00:33 -31.61539 20.26101 33996 ft 487 kts 209°
2026-05-04 00:34 -31.67600 20.22559 33996 ft 487 kts 209°
2026-05-04 00:34 -31.73672 20.19006 33996 ft 487 kts 209°
2026-05-04 00:35 -31.79720 20.15462 33996 ft 487 kts 209°
2026-05-04 00:35 -31.85783 20.11904 33996 ft 487 kts 209°
2026-05-04 00:36 -31.91806 20.08365 33996 ft 487 kts 209°
2026-05-04 00:36 -31.97862 20.04800 33996 ft 487 kts 209°
2026-05-04 00:37 -32.03924 20.01226 33996 ft 487 kts 209°
2026-05-04 00:37 -32.09976 19.97654 33996 ft 487 kts 209°
2026-05-04 00:38 -32.15994 19.94096 33996 ft 487 kts 209°
2026-05-04 00:38 -32.22046 19.90512 33996 ft 487 kts 209°
2026-05-04 00:39 -32.28099 19.86923 33996 ft 487 kts 209°
2026-05-04 00:39 -32.34157 19.83325 33996 ft 487 kts 209°
2026-05-04 00:40 -32.40198 19.79731 33996 ft 487 kts 209°
2026-05-04 00:40 -32.46209 19.76150 33996 ft 487 kts 209°
2026-05-04 00:41 -32.52258 19.72542 33996 ft 487 kts 209°
2026-05-04 00:41 -32.58304 19.68929 33996 ft 487 kts 209°
2026-05-04 00:42 -32.64314 19.65333 33996 ft 487 kts 209°
2026-05-04 00:42 -32.70358 19.61710 33996 ft 487 kts 209°
2026-05-04 00:43 -32.76404 19.58081 33996 ft 487 kts 209°
2026-05-04 00:43 -32.82439 19.54453 33996 ft 487 kts 209°
2026-05-04 00:44 -32.88480 19.50815 33996 ft 487 kts 209°
2026-05-04 00:44 -32.94470 19.47203 33996 ft 487 kts 209°
2026-05-04 00:45 -33.00521 19.43547 33865 ft 488 kts 209°
2026-05-04 00:45 -33.03536 19.41725 33680 ft 476 kts 209°
2026-05-04 00:45 -33.06408 19.39995 33481 ft 447 kts 210°
2026-05-04 00:45 -33.09090 19.38384 33278 ft 418 kts 210°
2026-05-04 00:46 -33.11611 19.36869 33050 ft 394 kts 210°
2026-05-04 00:46 -33.13998 19.35430 32710 ft 378 kts 210°
2026-05-04 00:46 -33.16302 19.34035 32334 ft 365 kts 210°
2026-05-04 00:46 -33.18528 19.32681 31954 ft 355 kts 210°
2026-05-04 00:47 -33.20671 19.31375 31510 ft 347 kts 210°
2026-05-04 00:47 -33.22796 19.30076 31015 ft 339 kts 211°
2026-05-04 00:47 -33.24883 19.28799 30450 ft 334 kts 211°
2026-05-04 00:47 -33.26937 19.27541 29857 ft 331 kts 211°
2026-05-04 00:48 -33.28973 19.26295 29258 ft 327 kts 211°
2026-05-04 00:48 -33.30998 19.25054 28655 ft 324 kts 211°
2026-05-04 00:48 -33.32994 19.23833 28055 ft 321 kts 211°
2026-05-04 00:48 -33.34977 19.22620 27455 ft 318 kts 211°
2026-05-04 00:49 -33.36911 19.21437 26864 ft 316 kts 211°
2026-05-04 00:49 -33.38825 19.20175 26263 ft 312 kts 214°
2026-05-04 00:49 -33.40630 19.18779 25667 ft 308 kts 218°
2026-05-04 00:49 -33.42368 19.17283 25066 ft 305 kts 220°
2026-05-04 00:50 -33.44041 19.15738 24468 ft 303 kts 221°
2026-05-04 00:50 -33.45673 19.14158 23868 ft 301 kts 222°
2026-05-04 00:50 -33.47271 19.12566 23269 ft 298 kts 223°
2026-05-04 00:50 -33.48833 19.10978 22675 ft 296 kts 223°
2026-05-04 00:51 -33.50411 19.09357 22069 ft 295 kts 224°
2026-05-04 00:51 -33.51938 19.07776 21476 ft 293 kts 224°
2026-05-04 00:51 -33.53471 19.06183 20877 ft 291 kts 224°
2026-05-04 00:51 -33.54993 19.04598 20278 ft 289 kts 224°
2026-05-04 00:52 -33.56509 19.03017 19678 ft 288 kts 224°
2026-05-04 00:52 -33.58018 19.01444 19077 ft 286 kts 224°
2026-05-04 00:52 -33.59517 18.99881 18477 ft 285 kts 224°
2026-05-04 00:52 -33.61007 18.98326 17879 ft 284 kts 224°
2026-05-04 00:53 -33.62500 18.96765 17277 ft 283 kts 224°
2026-05-04 00:53 -33.63984 18.95213 16677 ft 283 kts 224°
2026-05-04 00:53 -33.65443 18.93687 16086 ft 282 kts 224°
2026-05-04 00:53 -33.66921 18.92139 15485 ft 281 kts 224°
2026-05-04 00:54 -33.68390 18.90598 14886 ft 281 kts 224°
2026-05-04 00:54 -33.69857 18.89060 14287 ft 280 kts 224°
2026-05-04 00:54 -33.71325 18.87519 13686 ft 280 kts 224°
2026-05-04 00:54 -33.72787 18.85984 13087 ft 279 kts 224°
2026-05-04 00:55 -33.74249 18.84449 12487 ft 279 kts 224°
2026-05-04 00:55 -33.75703 18.82920 11888 ft 278 kts 224°
2026-05-04 00:55 -33.77139 18.81410 11296 ft 278 kts 223°
2026-05-04 00:55 -33.78595 18.79879 10695 ft 277 kts 223°
2026-05-04 00:56 -33.80045 18.78352 10095 ft 277 kts 223°
2026-05-04 00:56 -33.81489 18.76831 9496 ft 276 kts 223°
2026-05-04 00:56 -33.82926 18.75317 8898 ft 275 kts 223°
2026-05-04 00:56 -33.84373 18.73792 8295 ft 275 kts 223°
2026-05-04 00:57 -33.85804 18.72287 7698 ft 274 kts 223°
2026-05-04 00:57 -33.87242 18.70779 7097 ft 273 kts 222°
2026-05-04 00:57 -33.88675 18.69280 6497 ft 273 kts 222°
2026-05-04 00:57 -33.90083 18.67808 6046 ft 266 kts 222°
2026-05-04 00:58 -33.91427 18.66408 6039 ft 239 kts 222°
2026-05-04 00:58 -33.92626 18.65157 5999 ft 228 kts 222°
2026-05-04 00:58 -33.93816 18.63913 5997 ft 224 kts 222°
2026-05-04 00:58 -33.94982 18.62691 5997 ft 222 kts 222°
2026-05-04 00:59 -33.96141 18.61476 5998 ft 220 kts 222°
2026-05-04 00:59 -33.97289 18.60271 5999 ft 219 kts 223°
2026-05-04 00:59 -33.98378 18.59009 5995 ft 218 kts 223°
2026-05-04 00:59 -33.99759 18.58243 5958 ft 223 kts 192°
2026-05-04 01:00 -34.01309 18.58391 5672 ft 234 kts 163°
2026-05-04 01:00 -34.02409 18.59163 5378 ft 233 kts 139°
2026-05-04 01:00 -34.03299 18.60756 5016 ft 228 kts 112°
2026-05-04 01:00 -34.03895 18.62504 4643 ft 226 kts 117°
2026-05-04 01:01 -34.04994 18.63820 4259 ft 224 kts 149°
2026-05-04 01:01 -34.06464 18.64247 4081 ft 215 kts 180°
2026-05-04 01:01 -34.07951 18.64279 4007 ft 216 kts 170°
2026-05-04 01:01 -34.09265 18.65103 4002 ft 214 kts 138°
2026-05-04 01:02 -34.10261 18.66415 4020 ft 217 kts 130°
2026-05-04 01:02 -34.11224 18.67804 4002 ft 215 kts 129°
2026-05-04 01:02 -34.12170 18.69197 3999 ft 213 kts 128°
2026-05-04 01:02 -34.13106 18.70581 3999 ft 213 kts 128°
2026-05-04 01:03 -34.14040 18.71965 4000 ft 213 kts 128°
2026-05-04 01:03 -34.14972 18.73347 4000 ft 213 kts 128°
2026-05-04 01:03 -34.15909 18.74737 4000 ft 213 kts 128°
2026-05-04 01:03 -34.17039 18.75889 3984 ft 214 kts 153°
2026-05-04 01:04 -34.18462 18.76389 4019 ft 216 kts 169°
2026-05-04 01:04 -34.19962 18.76574 3984 ft 216 kts 184°
2026-05-04 01:04 -34.21335 18.75925 3996 ft 214 kts 217°
2026-05-04 01:04 -34.22223 18.74563 4020 ft 214 kts 243°
2026-05-04 01:05 -34.22803 18.72878 4012 ft 215 kts 251°
2026-05-04 01:05 -34.23282 18.71173 4000 ft 212 kts 253°
2026-05-04 01:05 -34.23650 18.69471 3978 ft 210 kts 265°
2026-05-04 01:05 -34.23341 18.67786 3996 ft 208 kts 298°
2026-05-04 01:06 -34.22319 18.66561 4002 ft 210 kts 330°
2026-05-04 01:06 -34.20932 18.66141 4022 ft 210 kts 355°
2026-05-04 01:06 -34.19474 18.66129 4003 ft 201 kts
2026-05-04 01:06 -34.18132 18.66141 3980 ft 183 kts 359°
2026-05-04 01:07 -34.16924 18.66089 3958 ft 173 kts 356°
2026-05-04 01:07 -34.15720 18.65947 3775 ft 174 kts 352°
2026-05-04 01:07 -34.14528 18.65717 3533 ft 173 kts 349°
2026-05-04 01:07 -34.13361 18.65430 3215 ft 169 kts 347°
2026-05-04 01:08 -34.12393 18.65162 2922 ft 164 kts 347°
2026-05-04 01:08 -34.11295 18.64838 2565 ft 161 kts 346°
2026-05-04 01:08 -34.10236 18.64514 2215 ft 158 kts 346°
2026-05-04 01:08 -34.09171 18.64177 1854 ft 155 kts 344°
2026-05-04 01:09 -34.08172 18.63799 1591 ft 147 kts 345°
2026-05-04 01:09 -34.07206 18.63512 1474 ft 140 kts 347°
2026-05-04 01:09 -34.06236 18.63230 1277 ft 146 kts 346°
2026-05-04 01:09 -34.05234 18.62928 1011 ft 150 kts 346°
2026-05-04 01:10 -34.04243 18.62620 781 ft 144 kts 345°
2026-05-04 01:10 -34.03283 18.62318 624 ft 141 kts 345°
2026-05-04 01:10 -34.02344 18.62022 513 ft 138 kts 345°
2026-05-04 01:10 -34.01423 18.61730 415 ft 140 kts 345°
2026-05-04 01:11 -34.00469 18.61437 365 ft 139 kts 346°
2026-05-04 01:11 -33.99517 18.61162 275 ft 141 kts 347°
2026-05-04 01:11 -33.98588 18.60869 213 ft 135 kts 343°
2026-05-04 01:11 -33.97763 18.60594 161 ft 115 kts 342°
2026-05-04 01:12 -33.97086 18.60359 160 ft 72 kts 344°
2026-05-04 01:12 -33.96849 18.60280 160 ft 0 kts 345°
2026-05-04 01:13 -33.96846 18.60279 160 ft 1 kts 345°
2026-05-04 01:13 -33.96833 18.60275 160 ft 2 kts 345°
2026-05-04 01:13 -33.96813 18.60268 160 ft 4 kts 345°
2026-05-04 01:14 -33.96783 18.60259 160 ft 5 kts 345°
2026-05-04 01:14 -33.96746 18.60247 160 ft 6 kts 345°
2026-05-04 01:14 -33.96701 18.60233 160 ft 7 kts 346°
2026-05-04 01:14 -33.96648 18.60217 160 ft 8 kts 346°
2026-05-04 01:15 -33.96588 18.60199 160 ft 9 kts 345°
2026-05-04 01:15 -33.96522 18.60177 160 ft 10 kts 345°
2026-05-04 01:15 -33.96451 18.60154 160 ft 11 kts 346°
2026-05-04 01:15 -33.96374 18.60131 160 ft 12 kts 346°
2026-05-04 01:16 -33.96292 18.60105 160 ft 9 kts 345°
2026-05-04 01:16 -33.96234 18.60085 160 ft 9 kts 343°
2026-05-04 01:16 -33.96171 18.60064 160 ft 10 kts 346°
2026-05-04 01:16 -33.96102 18.60043 160 ft 8 kts 345°
2026-05-04 01:17 -33.96051 18.60025 160 ft 7 kts 341°
2026-05-04 01:17 -33.96030 18.60002 160 ft 2 kts 282°
2026-05-04 01:17 -33.96033 18.59983 160 ft 2 kts 251°
2026-05-04 01:17 -33.96042 18.59966 160 ft 3 kts 233°
2026-05-04 01:18 -33.96056 18.59946 160 ft 3 kts 228°
2026-05-04 01:18 -33.96071 18.59926 160 ft 3 kts 227°
2026-05-04 01:18 -33.96091 18.59901 160 ft 5 kts 227°
2026-05-04 01:18 -33.96116 18.59868 160 ft 6 kts 227°
2026-05-04 01:19 -33.96123 18.59859 160 ft 0 kts 227°
2026-05-04 01:19 -33.96125 18.59857 160 ft 1 kts 227°
2026-05-04 01:19 -33.96133 18.59846 160 ft 2 kts 227°
2026-05-04 01:19 -33.96147 18.59828 160 ft 4 kts 227°
2026-05-04 01:20 -33.96167 18.59802 160 ft 5 kts 227°
2026-05-04 01:20 -33.96193 18.59770 160 ft 6 kts 224°
2026-05-04 01:20 -33.96221 18.59743 160 ft 5 kts 211°
2026-05-04 01:20 -33.96256 18.59732 160 ft 5 kts 181°
2026-05-04 01:21 -33.96286 18.59735 160 ft 5 kts 174°
2026-05-04 01:21 -33.96318 18.59739 160 ft 5 kts 172°
2026-05-04 01:21 -33.96353 18.59747 160 ft 6 kts 169°
2026-05-04 01:21 -33.96397 18.59756 160 ft 7 kts 170°
2026-05-04 01:22 -33.96440 18.59765 160 ft 3 kts 170°
2026-05-04 01:22 -33.96464 18.59770 160 ft 4 kts 169°
2026-05-04 01:22 -33.96494 18.59776 160 ft 4 kts 169°
2026-05-04 01:22 -33.96525 18.59784 160 ft 5 kts 169°
2026-05-04 01:23 -33.96565 18.59794 160 ft 6 kts 163°
2026-05-04 01:23 -33.96603 18.59821 160 ft 6 kts 136°
2026-05-04 01:23 -33.96634 18.59854 160 ft 2 kts 147°
2026-05-04 01:23 -33.96646 18.59862 160 ft 1 kts 154°
2026-05-04 01:24 -33.96657 18.59867 160 ft 2 kts 162°
2026-05-04 01:24 -33.96676 18.59874 160 ft 4 kts 162°
2026-05-04 01:24 -33.96704 18.59884 160 ft 5 kts 162°
2026-05-04 01:24 -33.96740 18.59897 160 ft 6 kts 164°
2026-05-04 01:25 -33.96782 18.59912 160 ft 6 kts 163°
2026-05-04 01:25 -33.96828 18.59929 160 ft 7 kts 162°
2026-05-04 01:25 -33.96862 18.59935 160 ft 2 kts 200°
2026-05-04 01:25 -33.96871 18.59926 160 ft 2 kts 221°
2026-05-04 01:26 -33.96880 18.59913 160 ft 2 kts 237°
2026-05-04 01:26 -33.96887 18.59896 160 ft 3 kts 246°
2026-05-04 01:26 -33.96894 18.59872 160 ft 3 kts 254°
2026-05-04 01:26 -33.96901 18.59841 160 ft 4 kts 257°
2026-05-04 01:27 -33.96903 18.59827 160 ft 0 kts 257°
2026-05-04 01:27 -33.96905 18.59819 160 ft 1 kts 257°
2026-05-04 01:27 -33.96906 18.59809 160 ft 1 kts 257°
2026-05-04 01:27 -33.96908 18.59800 160 ft 2 kts 257°
2026-05-04 01:28 -33.96909 18.59796 160 ft 0 kts 257°
2026-05-04 01:29 -33.96909 18.59795 160 ft 0 kts 257°
2026-05-04 01:32 -33.96909 18.59794 160 ft 0 kts 257°
2026-05-04 01:34 -33.96909 18.59793 160 ft 0 kts 257°
2026-05-04 01:35 -33.96910 18.59793 160 ft 0 kts 257°